Weather History for Columbia / Mount Pleasant, TN

Change the Weather History Date:

Thursday, May 9, 2013

  Actual Average (KBNA) Record (KBNA)
Temperature  
Mean Temperature 74 °F 66 °F  
Max Temperature 82 °F 76 °F 90 °F (1936)
Min Temperature 66 °F 55 °F 37 °F (1960)
Degree Days  
Heating Degree Days 0 2  
Month to date heating degree days 27  
Since 1 July heating degree days 3655  
Cooling Degree Days 9 3  
Month to date cooling degree days 22  
Year to date cooling degree days 67  
Growing Degree Days 24 (Base 50)    
Moisture  
Dew Point 64 °F    
Average Humidity 70    
Maximum Humidity 100    
Minimum Humidity 48    
Precipitation  
Precipitation 0.00 in 0.18 in 1.18 in (1909)
Month to date precipitation 1.69  
Year to date precipitation 17.49  
Snow  
Snow 0.00 in 0.00 in 0.00 in (2002)
Month to date snowfall 0.0  
Since 1 July snowfall 6.3  
Snow Depth -    
Sea Level Pressure  
Sea Level Pressure 30.04 in    
Wind  
Wind Speed 4 mph (SSW)    
Max Wind Speed 14 mph    
Max Gust Speed -    
Visibility 10 miles    
Events      
T = Trace of Precipitation, MM = Missing Value Source: NWS Daily Summary

Daily Weather History Graph

Daily Weather History Graph

Search for Another Location

Airport:

Trip Planner

Search our weather history database for the weather conditions in past years. The results will help you decide how hot, cold, wet, or windy it might be!

Date:

Astronomy

May. 09, 2013 Rise Set
Actual Time 5:48 AM CDT 7:42 PM CDT
Civil Twilight 5:20 AM CDT 8:09 PM CDT
Nautical Twilight 4:47 AM CDT 8:43 PM CDT
Astronomical Twilight 4:11 AM CDT 9:20 PM CDT
Moon 5:31 AM CDT (5/9) 7:36 PM CDT (5/9)
Length of Visible Light 14h 49m
Length of Day
13h 53m
Waning Crescent, 0% of the Moon is Illuminated
May 9
Waning Crescent
May 9
New
May 17
First Quarter
May 24
Full
May 31
Last Quarter

Hourly Weather History & Observations

Time (CDT) Temp. Heat Index Dew Point Humidity Pressure Visibility Wind Dir Wind Speed Gust Speed Precip Events Conditions
12:35 AM - - - N/A% 30.04 in 10.0 mi Calm Calm - N/A   Clear
12:55 AM - - - N/A% 30.04 in 10.0 mi Calm Calm - N/A   Clear
1:15 AM - - - N/A% 30.03 in 10.0 mi Calm Calm - N/A   Clear
1:35 AM - - - N/A% 30.03 in 10.0 mi SW 3.5 mph - N/A   Clear
1:55 AM - - - N/A% 30.03 in 10.0 mi Calm Calm - N/A   Clear
2:15 AM - - - N/A% 30.04 in 10.0 mi Calm Calm - N/A   Clear
3:55 AM - - - N/A% 30.04 in 10.0 mi SSW 3.5 mph - N/A   Clear
4:35 AM - - - N/A% 30.04 in 10.0 mi Calm Calm - N/A   Clear
4:55 AM - - - N/A% 30.05 in 9.0 mi Calm Calm - N/A   Clear
5:15 AM - - - N/A% 30.04 in 8.0 mi Calm Calm - N/A   Clear
5:35 AM - - - N/A% 30.05 in 10.0 mi Calm Calm - N/A   Clear
5:55 AM - - - N/A% 30.05 in 10.0 mi Calm Calm - N/A   Clear
6:15 AM - - - N/A% 30.06 in 10.0 mi Calm Calm - N/A   Clear
7:15 AM - - - N/A% 30.08 in 8.0 mi Calm Calm - N/A   Clear
8:35 AM - - - N/A% 30.07 in 10.0 mi Calm Calm - N/A   Clear
9:15 AM 71.6 °F - 71.6 °F 100% 30.09 in 10.0 mi WSW 3.5 mph - N/A   Clear
9:55 AM 77.0 °F - 71.6 °F 83% 30.09 in 10.0 mi South 3.5 mph - N/A   Clear
10:35 AM 78.8 °F - 66.2 °F 65% 30.09 in 10.0 mi SW 6.9 mph - N/A   Clear
10:55 AM 78.8 °F - 64.4 °F 61% 30.10 in 10.0 mi SW 6.9 mph - N/A   Clear
11:15 AM 80.6 °F 82.7 °F 66.2 °F 61% 30.09 in 10.0 mi SW 9.2 mph - N/A   Partly Cloudy
11:35 AM 80.6 °F 82.3 °F 64.4 °F 58% 30.09 in 10.0 mi SSW 11.5 mph - N/A   Scattered Clouds
12:15 PM 78.8 °F - 62.6 °F 57% 30.09 in 10.0 mi SSW 10.4 mph - N/A   Partly Cloudy
12:35 PM 78.8 °F - 62.6 °F 57% 30.09 in 10.0 mi South 8.1 mph - N/A   Partly Cloudy
12:55 PM 78.8 °F - 62.6 °F 57% 30.09 in 10.0 mi SSW 11.5 mph - N/A   Scattered Clouds
1:15 PM 80.6 °F 81.8 °F 62.6 °F 54% 30.08 in 10.0 mi South 10.4 mph - N/A   Partly Cloudy
1:35 PM 78.8 °F - 62.6 °F 57% 30.08 in 10.0 mi SSW 11.5 mph - N/A   Partly Cloudy
1:55 PM 80.6 °F 81.8 °F 62.6 °F 54% 30.07 in 10.0 mi SW 12.7 mph - N/A   Scattered Clouds
2:35 PM 80.6 °F 81.5 °F 60.8 °F 51% 30.05 in 10.0 mi SSW 6.9 mph - N/A   Clear
3:15 PM 82.4 °F 82.9 °F 60.8 °F 48% 30.01 in 10.0 mi SSW 9.2 mph - N/A   Clear
3:35 PM 82.4 °F 83.4 °F 62.6 °F 51% 30.00 in 10.0 mi South 11.5 mph - N/A   Clear
3:55 PM 82.4 °F 83.4 °F 62.6 °F 51% 30.00 in 10.0 mi SSW 13.8 mph - N/A   Clear
4:15 PM 82.4 °F 82.9 °F 60.8 °F 48% 29.99 in 10.0 mi South 9.2 mph - N/A   Partly Cloudy
4:35 PM 82.4 °F 83.4 °F 62.6 °F 51% 29.99 in 10.0 mi SSW 12.7 mph - N/A   Scattered Clouds
4:55 PM 80.6 °F 81.5 °F 60.8 °F 51% 29.99 in 10.0 mi South 11.5 mph - N/A   Scattered Clouds
5:15 PM 78.8 °F - 60.8 °F 54% 29.99 in 10.0 mi South 9.2 mph - N/A   Partly Cloudy
5:35 PM 80.6 °F 81.5 °F 60.8 °F 51% 30.00 in 10.0 mi SSW 13.8 mph - N/A   Clear
5:55 PM 77.0 °F - 60.8 °F 57% 29.99 in 10.0 mi SSW 10.4 mph - N/A   Partly Cloudy
6:15 PM 77.0 °F - 62.6 °F 61% 29.99 in 10.0 mi SSW 10.4 mph - N/A   Partly Cloudy
6:35 PM 77.0 °F - 62.6 °F 61% 29.99 in 10.0 mi SSW 9.2 mph - N/A   Clear
6:55 PM 75.2 °F - 62.6 °F 65% 29.99 in 10.0 mi SSW 6.9 mph - N/A   Clear
7:15 PM 75.2 °F - 62.6 °F 65% 29.99 in 10.0 mi SSW 5.8 mph - N/A   Clear
7:35 PM 73.4 °F - 64.4 °F 73% 30.00 in 10.0 mi SSW 4.6 mph - N/A   Clear
7:55 PM 71.6 °F - 64.4 °F 78% 30.02 in 10.0 mi SSW 4.6 mph - N/A   Clear
8:15 PM 69.8 °F - 66.2 °F 88% 30.02 in 10.0 mi South 3.5 mph - N/A   Clear
8:35 PM 69.8 °F - 69.8 °F 100% 30.02 in 10.0 mi South 4.6 mph - N/A   Clear
8:55 PM 69.8 °F - 68.0 °F 94% 30.02 in 10.0 mi South 4.6 mph - N/A   Clear
9:15 PM 69.8 °F - 69.8 °F 100% 30.02 in 10.0 mi South 4.6 mph - N/A   Clear
9:35 PM 68.0 °F - 68.0 °F 100% 30.02 in 10.0 mi South 3.5 mph - N/A   Clear
9:55 PM 66.2 °F - 66.2 °F 100% 30.02 in 10.0 mi Calm Calm - N/A   Clear
10:15 PM 66.2 °F - 66.2 °F 100% 30.02 in 10.0 mi Calm Calm - N/A   Scattered Clouds
10:55 PM 66.2 °F - 66.2 °F 100% 30.01 in 10.0 mi Calm Calm - N/A   Partly Cloudy
11:15 PM 66.2 °F - 66.2 °F 100% 30.02 in 10.0 mi SSW 5.8 mph - N/A   Clear
11:35 PM 66.2 °F - 66.2 °F 100% 30.02 in 10.0 mi South 4.6 mph - N/A   Mostly Cloudy